Location: Monroe
(41.9160°N, 83.3980°W)
Time: 00:21:13
(UTC-04:00)

Amateur Radio Satellites - All Passes

Search period start: 20 August 2014 23:51
Search period end: 21 August 2014 23:51
Location: Monroe, 41.9160°N, 83.3980°W

Satellite Date Start Highest point End Downlink Frequencies (MHz)
Time Altitude Azimuth
MaSat-1 21 Aug 01:03:51 01:08:00 26° 51° (NE) 01:11:46 437.345 MHz
Saudisat 1A 21 Aug 01:15:39 01:18:42 19° 111° (ESE) 01:21:46 436.775 MHz
KITSAT 1 21 Aug 01:59:08 02:06:52 51° 112° (ESE) 02:14:36 435.175 FM
Oscar 19 21 Aug 02:20:46 02:25:03 25° 94° (E) 02:29:17 437.125 CW, 437.150 USB
ITAMSAT 1 21 Aug 02:29:55 02:32:12 13° 89° (E) 02:34:30 435.822 SSB
AO-Echo 21 Aug 02:36:27 02:39:10 15° 91° (E) 02:41:51 ?
MaSat-1 21 Aug 02:40:46 02:45:16 39° 252° (WSW) 02:49:15 437.345 MHz
Uribyol 2 21 Aug 02:41:42 02:45:15 18° 92° (E) 02:48:47 436.500 FM
Oscar 16 21 Aug 02:53:08 02:58:13 53° 100° (E) 03:03:17 437.025 USB, Beacon 2401.1428
Saudisat 1A 21 Aug 02:53:39 02:57:55 48° 308° (NW) 03:02:14 436.775 MHz
AO-27 21 Aug 02:54:32 02:58:38 23° 94° (E) 03:02:43 436.795 MHz FM
TMSAT-1 21 Aug 03:21:01 03:23:24 13° 89° (E) 03:25:47 436.925 FM
JAS-1B 21 Aug 03:24:19 03:31:15 39° 94° (E) 03:37:09 435.800 - 435.900 CW/SSB
PCSat 21 Aug 03:33:39 03:36:54 16° 40° (NE) 03:40:07 145.825 MHz
KITSAT 1 21 Aug 03:54:53 04:02:26 41° 313° (NW) 04:10:02 435.175 FM
Oscar 19 21 Aug 03:59:39 04:04:30 40° 291° (WNW) 04:09:19 437.125 CW, 437.150 USB
Gurwin Techsat 1B 21 Aug 04:00:03 04:05:06 42° 98° (E) 04:10:06 435.225 FM
ITAMSAT 1 21 Aug 04:07:05 04:12:16 76° 286° (WNW) 04:17:25 435.822 SSB
AO-Echo 21 Aug 04:13:41 04:18:20 55° 288° (WNW) 04:22:54 ?
Uribyol 2 21 Aug 04:20:00 04:25:03 55° 289° (WNW) 04:30:05 436.500 FM
AO-7 21 Aug 04:23:52 04:28:38 16° 89° (E) 04:33:21 29.400 - 29.500 MHz
Oscar 16 21 Aug 04:33:24 04:37:11 21° 297° (WNW) 04:40:57 437.025 USB, Beacon 2401.1428
AO-27 21 Aug 04:33:26 04:38:19 43° 291° (WNW) 04:43:11 436.795 MHz FM
OPAL 21 Aug 04:43:22 04:48:18 65° 71° (ENE) 04:53:20 ?
Sapphire 21 Aug 04:45:10 04:50:22 44° 54° (NE) 04:55:32 437.095 MHz 1200 baud AX-25 AFSK
Uosat F 21 Aug 04:55:12 04:58:47 20° 93° (E) 05:02:21 435.120 FM
TMSAT-1 21 Aug 04:58:36 05:03:55 78° 286° (WNW) 05:09:11 436.925 FM
JAS-1B 21 Aug 05:14:53 05:21:51 39° 298° (WNW) 05:27:47 435.800 - 435.900 CW/SSB
PCSat 21 Aug 05:15:44 05:21:11 81° 60° (ENE) 05:26:36 145.825 MHz
Gurwin Techsat 1B 21 Aug 05:40:31 05:44:49 26° 295° (WNW) 05:49:07 435.225 FM
ITAMSAT 1 21 Aug 05:50:00 05:50:51 10° 304° (WNW) 05:51:43 435.822 SSB
KITSAT 1 21 Aug 05:56:06 06:00:26 15° 340° (NNW) 06:04:46 435.175 FM
STRAND 1 21 Aug 06:11:34 06:14:50 17° 61° (ENE) 06:18:06 ?
AO-7 21 Aug 06:14:12 06:22:34 83° 108° (ESE) 06:30:51 29.400 - 29.500 MHz
SO-50 21 Aug 06:24:48 06:28:22 24° 112° (ESE) 06:31:59 436.795 FM
OPAL 21 Aug 06:24:52 06:27:39 15° 267° (W) 06:30:28 ?
Sapphire 21 Aug 06:29:02 06:33:34 28° 252° (WSW) 06:38:04 437.095 MHz 1200 baud AX-25 AFSK
Uosat F 21 Aug 06:33:01 06:37:50 49° 289° (WNW) 06:42:37 435.120 FM
Hamsat 21 Aug 06:40:05 06:43:23 21° 93° (E) 06:46:39 145.90 MHz
TMSAT-1 21 Aug 06:41:36 06:42:56 11° 303° (WNW) 06:44:15 436.925 FM
JAS-2 21 Aug 06:58:33 07:03:00 28° 96° (E) 07:07:31 435.800 - 435.900 CW/SSB, 435.910 FM
PCSat 21 Aug 07:01:14 07:03:51 14° 257° (WSW) 07:06:28 145.825 MHz
UOSAT-12 21 Aug 07:45:38 07:47:29 12° 107° (ESE) 07:49:21 437.025 FM, 437.400 FM
STRAND 1 21 Aug 07:48:27 07:53:31 63° 258° (WSW) 07:58:36 ?
KITSAT 1 21 Aug 07:56:53 08:00:08 13° 12° (NNE) 08:03:22 435.175 FM
SO-50 21 Aug 08:04:28 08:08:41 40° 310° (NW) 08:13:01 436.795 FM
RS-15 21 Aug 08:07:46 08:11:57 13° 96° (E) 08:16:06 29.354 - 29.394 USB, Beacon 29.352 USB
AO-7 21 Aug 08:08:13 08:14:25 24° 307° (NW) 08:20:37 29.400 - 29.500 MHz
Hamsat 21 Aug 08:15:26 08:19:26 36° 289° (WNW) 08:23:24 145.90 MHz
SO-67 21 Aug 08:33:02 08:36:27 55° 100° (E) 08:39:51 435.3500 MHz FM
JAS-2 21 Aug 08:43:35 08:48:11 33° 293° (WNW) 08:52:49 435.800 - 435.900 CW/SSB, 435.910 FM
UOSAT-12 21 Aug 09:22:21 09:26:58 77° 304° (NW) 09:31:41 437.025 FM, 437.400 FM
Saudisat 1A 21 Aug 09:41:07 09:44:26 20° 43° (NE) 09:47:44 436.775 MHz
HO-68 21 Aug 09:50:27 09:56:41 31° 96° (E) 10:02:53 435.675 MHz FM
KITSAT 1 21 Aug 09:51:52 09:58:47 30° 40° (NE) 10:05:39 435.175 FM
RS-15 21 Aug 10:11:05 10:22:01 67° 116° (ESE) 10:32:46 29.354 - 29.394 USB, Beacon 29.352 USB
UKube-1 21 Aug 10:49:52 10:54:08 55° 101° (E) 10:58:22 145.840 MHz, 145.915 MHz
FUNcube-1 21 Aug 11:04:30 11:07:45 20° 93° (E) 11:11:02 145.950 - 145.970 MHz USB
UOSAT-12 21 Aug 11:05:26 11:07:55 14° 324° (NW) 11:10:26 437.025 FM, 437.400 FM
Oscar 11 21 Aug 11:07:08 11:11:25 53° 100° (E) 11:15:41 145.825 FM, Beacon 2401.500 USB
Saudisat 1A 21 Aug 11:20:01 11:24:20 54° 241° (WSW) 11:28:37 436.775 MHz
HO-68 21 Aug 11:37:45 11:44:36 51° 294° (WNW) 11:51:26 435.675 MHz FM
KITSAT 1 21 Aug 11:46:55 11:55:00 77° 242° (WSW) 12:03:01 435.175 FM
JAS-1B 21 Aug 12:24:35 12:26:45 11° 44° (NE) 12:28:53 435.800 - 435.900 CW/SSB
RS-15 21 Aug 12:24:48 12:35:01 42° 320° (NW) 12:45:14 29.354 - 29.394 USB, Beacon 29.352 USB
UKube-1 21 Aug 12:27:27 12:29:53 15° 297° (WNW) 12:32:19 145.840 MHz, 145.915 MHz
Oscar 16 21 Aug 12:35:55 12:37:04 11° 57° (ENE) 12:38:14 437.025 USB, Beacon 2401.1428
FUNcube-1 21 Aug 12:40:10 12:44:16 39° 289° (WNW) 12:48:27 145.950 - 145.970 MHz USB
Oscar 11 21 Aug 12:44:37 12:47:10 15° 296° (WNW) 12:49:43 145.825 FM, Beacon 2401.500 USB
HO-68 21 Aug 13:30:11 13:30:40 10° 314° (NW) 13:31:10 435.675 MHz FM
Oscar 19 21 Aug 13:37:54 13:42:36 38° 69° (ENE) 13:47:21 437.125 CW, 437.150 USB
KITSAT 1 21 Aug 13:45:05 13:49:02 15° 261° (W) 13:53:00 435.175 FM
ITAMSAT 1 21 Aug 13:47:41 13:51:35 22° 63° (ENE) 13:55:30 435.822 SSB
AO-Echo 21 Aug 13:49:08 13:53:12 24° 66° (ENE) 13:57:10 ?
Uribyol 2 21 Aug 13:59:44 14:04:09 30° 66° (ENE) 14:08:35 436.500 FM
JAS-1B 21 Aug 14:05:53 14:15:00 44° 64° (ENE) 14:23:36 435.800 - 435.900 CW/SSB
Oscar 16 21 Aug 14:10:25 14:15:32 79° 74° (ENE) 14:20:43 437.025 USB, Beacon 2401.1428
AO-27 21 Aug 14:12:53 14:17:37 37° 68° (ENE) 14:22:22 436.795 MHz FM
ISS 21 Aug 14:39:20 14:42:17 30° 136° (SE) 14:45:15 145.800 FM
TMSAT-1 21 Aug 14:41:30 14:45:33 23° 64° (ENE) 14:49:36 436.925 FM
RS-15 21 Aug 14:43:35 14:51:28 22° 354° (N) 14:59:25 29.354 - 29.394 USB, Beacon 29.352 USB
SO-50 21 Aug 14:55:13 14:59:21 29° 46° (NE) 15:03:32 436.795 FM
Oscar 19 21 Aug 15:17:44 15:22:01 27° 265° (W) 15:26:21 437.125 CW, 437.150 USB
Gurwin Techsat 1B 21 Aug 15:21:26 15:26:42 69° 73° (ENE) 15:31:59 435.225 FM
AO-7 21 Aug 15:22:56 15:29:34 27° 54° (NE) 15:36:11 29.400 - 29.500 MHz
ITAMSAT 1 21 Aug 15:25:45 15:30:45 48° 260° (W) 15:35:46 435.822 SSB
AO-Echo 21 Aug 15:26:47 15:31:43 43° 261° (W) 15:36:32 ?
Uribyol 2 21 Aug 15:38:51 15:43:31 35° 263° (W) 15:48:13 436.500 FM
AO-27 21 Aug 15:52:49 15:57:12 27° 265° (W) 16:01:35 436.795 MHz FM
Oscar 16 21 Aug 15:53:26 15:55:29 12° 271° (W) 15:57:33 437.025 USB, Beacon 2401.1428
JAS-1B 21 Aug 15:55:35 16:05:11 54° 261° (W) 16:14:26 435.800 - 435.900 CW/SSB
Uosat F 21 Aug 16:08:40 16:12:57 29° 66° (ENE) 16:17:14 435.120 FM
UOSAT-12 21 Aug 16:12:38 16:15:44 17° 39° (NE) 16:18:48 437.025 FM, 437.400 FM
ISS 21 Aug 16:15:51 16:18:58 37° 334° (NNW) 16:22:06 145.800 FM
TMSAT-1 21 Aug 16:20:02 16:25:08 48° 261° (W) 16:30:16 436.925 FM
MaSat-1 21 Aug 16:28:45 16:33:28 84° 114° (ESE) 16:38:38 437.345 MHz
SO-50 21 Aug 16:35:33 16:40:02 40° 244° (WSW) 16:44:33 436.795 FM
OPAL 21 Aug 16:54:06 16:57:23 17° 93° (E) 17:00:40 ?
RS-15 21 Aug 16:59:21 17:08:45 31° 29° (NNE) 17:18:20 29.354 - 29.394 USB, Beacon 29.352 USB
Gurwin Techsat 1B 21 Aug 17:04:12 17:07:10 15° 270° (W) 17:10:08 435.225 FM
JAS-2 21 Aug 17:12:44 17:16:32 17° 61° (ENE) 17:20:06 435.800 - 435.900 CW/SSB, 435.910 FM
AO-7 21 Aug 17:13:15 17:21:36 75° 254° (WSW) 17:29:58 29.400 - 29.500 MHz
Hamsat 21 Aug 17:34:35 17:37:15 16° 64° (ENE) 17:39:56 145.90 MHz
Uosat F 21 Aug 17:47:06 17:51:37 34° 263° (W) 17:56:10 435.120 FM
UOSAT-12 21 Aug 17:51:45 17:56:30 83° 238° (WSW) 18:01:10 437.025 FM, 437.400 FM
ISS 21 Aug 17:54:14 17:56:25 16° 353° (N) 17:58:35 145.800 FM
MaSat-1 21 Aug 18:08:13 18:11:20 16° 315° (NW) 18:14:33 437.345 MHz
OPAL 21 Aug 18:31:31 18:36:40 63° 290° (WNW) 18:41:48 ?
JAS-2 21 Aug 18:54:14 19:01:03 85° 256° (WSW) 19:07:03 435.800 - 435.900 CW/SSB, 435.910 FM
SO-67 21 Aug 19:07:08 19:09:42 20° 69° (ENE) 19:12:16 435.3500 MHz FM
Hamsat 21 Aug 19:08:42 19:12:49 47° 261° (W) 19:17:00 145.90 MHz
AO-7 21 Aug 19:11:51 19:15:41 14° 272° (W) 19:19:32 29.400 - 29.500 MHz
RS-15 21 Aug 19:11:52 19:23:00 82° 56° (ENE) 19:34:33 29.354 - 29.394 USB, Beacon 29.352 USB
Sapphire 21 Aug 19:27:36 19:32:29 36° 111° (ESE) 19:37:24 437.095 MHz 1200 baud AX-25 AFSK
ISS 21 Aug 19:31:35 19:34:05 19° 14° (NNE) 19:36:35 145.800 FM
PANSAT 21 Aug 19:51:26 19:52:04 10° 185° (S) 19:52:43 not established
PCSat 21 Aug 19:57:34 20:02:56 71° 117° (ESE) 20:08:21 145.825 MHz
STRAND 1 21 Aug 19:58:48 20:03:38 42° 99° (E) 20:08:27 ?
HO-68 21 Aug 20:20:13 20:25:51 26° 58° (ENE) 20:31:30 435.675 MHz FM
SO-67 21 Aug 20:39:48 20:42:37 23° 265° (W) 20:45:28 435.3500 MHz FM
JAS-2 21 Aug 20:44:02 20:46:41 13° 270° (W) 20:49:14 435.800 - 435.900 CW/SSB, 435.910 FM
ISS 21 Aug 21:07:57 21:11:17 68° 33° (NNE) 21:14:36 145.800 FM
Sapphire 21 Aug 21:10:59 21:15:53 35° 309° (NW) 21:20:50 437.095 MHz 1200 baud AX-25 AFSK
RS-15 21 Aug 21:25:32 21:34:08 27° 257° (WSW) 21:43:01 29.354 - 29.394 USB, Beacon 29.352 USB
STRAND 1 21 Aug 21:38:32 21:42:34 24° 296° (WNW) 21:46:35 ?
PCSat 21 Aug 21:42:53 21:46:54 21° 316° (NW) 21:50:57 145.825 MHz
UKube-1 21 Aug 21:45:37 21:49:49 50° 72° (ENE) 21:54:02 145.840 MHz, 145.915 MHz
FUNcube-1 21 Aug 22:02:22 22:04:57 16° 65° (ENE) 22:07:32 145.950 - 145.970 MHz USB
Oscar 11 21 Aug 22:02:29 22:06:33 43° 72° (ENE) 22:10:40 145.825 FM, Beacon 2401.500 USB
HO-68 21 Aug 22:05:55 22:13:00 66° 257° (WSW) 22:20:07 435.675 MHz FM
ISS 21 Aug 22:45:43 22:47:39 15° 229° (SW) 22:49:35 145.800 FM
UKube-1 21 Aug 23:23:49 23:26:18 15° 268° (W) 23:28:47 145.840 MHz, 145.915 MHz
FUNcube-1 21 Aug 23:37:02 23:41:00 44° 261° (W) 23:45:00 145.950 - 145.970 MHz USB
Oscar 11 21 Aug 23:40:08 23:42:57 17° 268° (W) 23:45:48 145.825 FM, Beacon 2401.500 USB
